Cyclone, PA

4:44 PM EDT on September 28, 2016 (GMT -0400)
Bradford Regional

Weather History for KBFD - January, 2014

Change the Weather History Date:

Thursday, January 23, 2014

  Actual Average Record
Temperature  
Mean Temperature 2 °F 21 °F  
Max Temperature 10 °F 29 °F 53 °F (1967)
Min Temperature -6 °F 14 °F -18 °F (1976)
Degree Days  
Heating Degree Days 63 38  
Month to date heating degree days 1009 874  
Since 1 July heating degree days 3945 3930  
Cooling Degree Days 0 0  
Month to date cooling degree days 0 0  
Year to date cooling degree days 0 0  
Moisture  
Dew Point -5 °F    
Average Humidity 71    
Maximum Humidity 79    
Minimum Humidity 63    
Precipitation  
Precipitation T in 0.11 in 0.88 in (1965)
Month to date precipitation 1.93 2.49  
Year to date precipitation 1.93 2.49  
Sea Level Pressure  
Sea Level Pressure 30.03 in    
Wind  
Wind Speed 7 mph (WNW)    
Max Wind Speed 20 mph    
Max Gust Speed 24 mph    
Visibility 4 miles    
Events Snow    
T = Trace of Precipitation, MM = Missing Value Source: NWS Daily Summary

Daily Weather History Graph

Daily Weather History Graph

Search for Another Location

Airport or City:

Trip Planner

Search our weather history database for the weather conditions in past years. The results will help you decide how hot, cold, wet, or windy it might be!

Date:

Astronomy

Jan. 23, 2014 Rise Set
Actual Time 7:34 AM EST 5:18 PM EST
Civil Twilight 7:04 AM EST 5:48 PM EST
Nautical Twilight 6:30 AM EST 6:22 PM EST
Astronomical Twilight 5:57 AM EST 6:55 PM EST
Moon No Moon Rise 11:01 AM EST (1/23)
Length of Visible Light 10h 44m
Length of Day
9h 43m
Waning Gibbous, 55% of the Moon is Illuminated
Jan 23
Waning Gibbous
Jan 24
Last Quarter
Jan 30
New
Feb 6
First Quarter
Feb 14
Full

Hourly Weather History & Observations

Time (EST) Temp. Windchill Dew Point Humidity Pressure Visibility Wind Dir Wind Speed Gust Speed Precip Events Conditions
12:24 AM -0.9 °F - -8.0 °F 72% 29.86 in 1.8 mi Calm Calm - 0.00 in Snow Light Snow
12:28 AM -0.9 °F - -7.1 °F 75% 29.86 in 2.0 mi Calm Calm - 0.00 in Snow Light Snow
12:40 AM -0.9 °F - -7.1 °F 75% 29.86 in 4.0 mi Calm Calm - 0.00 in Snow Light Snow
12:53 AM -0.9 °F - -7.1 °F 75% 30.01 in 2.5 mi Calm Calm - 0.00 in Snow Light Snow
1:12 AM -0.9 °F - -7.1 °F 75% 29.85 in 3.0 mi Calm Calm - 0.00 in Snow Light Snow
1:21 AM -0.9 °F - -7.1 °F 75% 29.85 in 2.5 mi Calm Calm - 0.00 in Snow Light Snow
1:53 AM -0.9 °F - -7.1 °F 75% 30.00 in 3.0 mi Calm Calm - 0.00 in Snow Light Snow
2:10 AM -0.0 °F - -7.1 °F 72% 29.86 in 2.5 mi Calm Calm - 0.00 in Snow Light Snow
2:30 AM -0.9 °F - -7.1 °F 75% 29.86 in 3.0 mi Calm Calm - 0.00 in Snow Light Snow
2:39 AM -0.9 °F - -7.1 °F 75% 29.86 in 2.5 mi Calm Calm - 0.00 in Snow Light Snow
2:53 AM -0.9 °F - -7.1 °F 75% 30.01 in 5.0 mi Calm Calm - 0.00 in   Haze
3:20 AM -2.0 °F - -8.0 °F 76% 29.87 in 7.0 mi Calm Calm - 0.00 in Snow Light Snow
3:31 AM -2.0 °F - -7.1 °F 79% 29.87 in 2.5 mi Calm Calm - 0.00 in Snow Light Snow
3:37 AM -2.0 °F - -7.1 °F 79% 29.87 in 3.0 mi Calm Calm - 0.00 in Snow Light Snow
3:53 AM -2.0 °F - -8.0 °F 76% 30.01 in 4.0 mi Calm Calm - 0.00 in Snow Light Snow
4:05 AM -2.9 °F - -9.0 °F 75% 29.87 in 4.0 mi Calm Calm - 0.00 in Snow Light Snow
4:46 AM -2.9 °F - -8.0 °F 79% 29.87 in 2.0 mi Calm Calm - 0.00 in Snow Light Snow
4:51 AM -2.2 °F - -9.4 °F 71% 29.87 in 3.0 mi Calm Calm - 0.00 in Snow Light Snow
4:53 AM -2.0 °F - -9.0 °F 72% 30.02 in 4.0 mi Calm Calm - 0.00 in Snow Light Snow
4:59 AM -2.0 °F - -8.0 °F 76% 29.87 in 2.5 mi Calm Calm - 0.00 in Snow Light Snow
5:08 AM -2.0 °F - -8.0 °F 76% 29.87 in 1.8 mi Calm Calm - 0.00 in Snow Light Snow
5:15 AM -2.9 °F - -9.0 °F 75% 29.87 in 3.0 mi Calm Calm - 0.00 in Snow Light Snow
5:24 AM -2.9 °F - -9.0 °F 75% 29.88 in 2.0 mi Calm Calm - 0.00 in Snow Light Snow
5:34 AM -2.0 °F - -9.0 °F 72% 29.88 in 6.0 mi Calm Calm - 0.00 in   Haze
5:53 AM 1.0 °F -8.7 °F -6.0 °F 72% 30.03 in 8.0 mi SSW 4.6 mph - 0.00 in   Overcast
6:05 AM -0.0 °F -7.9 °F -6.0 °F 76% 29.89 in 8.0 mi SSW 3.5 mph - N/A   Overcast
6:53 AM -5.1 °F - -11.0 °F 76% 30.06 in 6.0 mi Calm Calm - 0.00 in Snow Light Snow
7:18 AM -5.1 °F - -11.0 °F 76% 29.91 in 8.0 mi Calm Calm - 0.00 in   Overcast
7:26 AM -5.1 °F - -11.0 °F 76% 29.91 in 3.0 mi Calm Calm - 0.00 in Snow Light Snow
7:48 AM -4.0 °F - -11.2 °F 71% 29.92 in 1.8 mi Calm Calm - 0.00 in Snow Light Snow
7:53 AM -4.0 °F - -11.0 °F 72% 30.08 in 1.8 mi Calm Calm - 0.00 in Snow Light Snow
7:59 AM -5.1 °F - -11.0 °F 76% 29.92 in 3.0 mi Calm Calm - 0.00 in Snow Light Snow
8:41 AM -4.0 °F - -9.0 °F 79% 29.93 in 10.0 mi Calm Calm - 0.00 in   Scattered Clouds
8:53 AM -2.0 °F - -9.0 °F 72% 30.09 in 9.0 mi Calm Calm - 0.00 in   Clear
9:31 AM 1.9 °F -5.6 °F -2.9 °F 80% 29.95 in 6.0 mi WSW 3.5 mph - N/A   Haze
9:44 AM 3.0 °F -6.4 °F -2.9 °F 76% 29.96 in 2.5 mi West 4.6 mph - 0.00 in Snow Light Snow
9:53 AM 3.9 °F -5.3 °F -2.9 °F 73% 30.12 in 6.0 mi WSW 4.6 mph - 0.00 in   Haze
10:32 AM 5.0 °F -6.9 °F -2.0 °F 73% 29.98 in 10.0 mi West 6.9 mph - N/A   Mostly Cloudy
10:53 AM 7.0 °F -5.7 °F -2.0 °F 67% 30.13 in 6.0 mi West 8.1 mph - 0.00 in Snow Light Snow
11:53 AM 7.0 °F -8.3 °F -5.1 °F 58% 30.13 in 9.0 mi West 11.5 mph - 0.00 in   Overcast
12:32 PM 8.1 °F -4.3 °F -2.9 °F 61% 29.99 in 2.0 mi West 8.1 mph - 0.00 in Snow Light Snow
12:44 PM 8.1 °F -2.0 °F -2.0 °F 64% 29.99 in 1.5 mi WNW 5.8 mph - 0.00 in Snow Light Snow
12:53 PM 8.1 °F -4.3 °F -2.0 °F 64% 30.14 in 1.8 mi West 8.1 mph - 0.00 in Snow Light Snow
1:11 PM 8.1 °F -5.3 °F -0.0 °F 70% 30.00 in 0.5 mi WNW 9.2 mph - 0.00 in Snow Snow
1:19 PM 8.1 °F -6.2 °F -0.0 °F 70% 30.00 in 0.5 mi WNW 10.4 mph - 0.00 in Snow Snow
1:35 PM 9.0 °F -5.9 °F -0.0 °F 67% 30.00 in 1.0 mi WNW 11.5 mph - 0.00 in Snow Light Snow
1:42 PM 8.1 °F -7.7 °F -2.0 °F 64% 30.00 in 2.0 mi NW 12.7 mph - 0.00 in Snow Light Snow
1:53 PM 9.0 °F -3.2 °F -0.0 °F 67% 30.14 in 1.5 mi NW 8.1 mph - 0.00 in Snow Light Snow
2:02 PM 9.0 °F -0.9 °F -0.9 °F 64% 30.00 in 3.0 mi Variable 5.8 mph - 0.00 in Snow Light Snow
2:08 PM 9.0 °F -5.9 °F -0.9 °F 64% 30.00 in 1.8 mi NW 11.5 mph - 0.00 in Snow Light Snow
2:34 PM 8.1 °F -6.2 °F -0.9 °F 67% 30.02 in 2.5 mi West 10.4 mph 19.6 mph 0.00 in Snow Light Snow
2:39 PM 9.0 °F -7.3 °F -2.0 °F 61% 30.02 in 4.0 mi West 13.8 mph 19.6 mph 0.00 in Snow Light Snow
2:53 PM 9.0 °F -9.0 °F -4.0 °F 56% 30.17 in 6.0 mi WNW 17.3 mph 23.0 mph 0.00 in Snow Blowing Snow
3:53 PM 9.0 °F -7.3 °F -2.9 °F 59% 30.20 in 9.0 mi West 13.8 mph - 0.00 in   Overcast
4:02 PM 8.1 °F -7.0 °F -0.9 °F 67% 30.06 in 1.8 mi WNW 11.5 mph - 0.00 in Snow Light Snow
4:16 PM 8.1 °F -9.0 °F -0.9 °F 67% 30.07 in 2.0 mi WNW 15.0 mph - 0.00 in Snow Light Snow
4:24 PM 8.1 °F -9.0 °F -2.0 °F 64% 30.07 in 5.0 mi WNW 15.0 mph 20.7 mph 0.00 in   Haze
4:44 PM 8.1 °F -8.4 °F -2.0 °F 64% 30.08 in 1.8 mi WNW 13.8 mph 20.7 mph 0.00 in Snow Light Snow
4:50 PM 8.6 °F -6.3 °F -0.4 °F 67% 30.08 in 0.8 mi WNW 11.5 mph - 0.00 in Snow Light Snow
4:51 PM 8.1 °F -6.2 °F -0.0 °F 70% 30.23 in 0.8 mi WNW 10.4 mph - 0.00 in Snow Light Snow
5:05 PM 7.0 °F -9.1 °F -0.9 °F 70% 30.09 in 1.0 mi NW 12.7 mph 21.9 mph 0.00 in Snow Light Snow
5:11 PM 7.0 °F -10.4 °F -0.9 °F 70% 30.10 in 2.0 mi WNW 15.0 mph 21.9 mph 0.00 in Snow Light Snow
5:18 PM 7.0 °F -8.3 °F -0.9 °F 70% 30.10 in 1.0 mi WNW 11.5 mph - 0.00 in Snow Light Snow
5:28 PM 7.0 °F -9.8 °F -2.9 °F 64% 30.10 in 3.0 mi WNW 13.8 mph - 0.00 in Snow Light Snow
5:48 PM 6.8 °F -8.6 °F -0.4 °F 72% 30.12 in 1.8 mi NW 11.5 mph - 0.00 in Snow Light Snow
5:49 PM 7.0 °F -9.1 °F -0.9 °F 70% 30.26 in 1.5 mi NW 12.7 mph - 0.00 in Snow Light Snow
6:15 PM 6.1 °F -7.8 °F -0.9 °F 73% 30.13 in 3.0 mi WNW 9.2 mph - 0.00 in Snow Light Snow
6:53 PM 5.0 °F -10.0 °F -2.9 °F 70% 30.30 in 4.0 mi West 10.4 mph - 0.00 in Snow Light Snow
7:53 PM 5.0 °F -10.0 °F -2.9 °F 70% 30.32 in 6.0 mi West 10.4 mph - 0.00 in Snow Light Snow
8:14 PM 5.0 °F -10.0 °F -2.9 °F 70% 30.16 in 2.5 mi West 10.4 mph - 0.00 in Snow Light Snow
8:33 PM 3.9 °F -11.3 °F -2.9 °F 73% 30.16 in 4.0 mi West 10.4 mph - 0.00 in Snow Light Snow
8:53 PM 3.9 °F -13.0 °F -2.9 °F 73% 30.32 in 4.0 mi West 12.7 mph - 0.00 in Snow Light Snow
9:39 PM 3.9 °F -11.3 °F -2.9 °F 73% 30.17 in 2.5 mi WNW 10.4 mph - 0.00 in Snow Light Snow
9:49 PM 3.2 °F -12.2 °F -2.2 °F 78% 30.17 in 3.0 mi WNW 10.4 mph - 0.00 in Snow Light Snow
9:53 PM 3.9 °F -10.4 °F -2.9 °F 73% 30.32 in 3.0 mi WNW 9.2 mph - 0.00 in Snow Light Snow
10:53 PM 1.9 °F -13.8 °F -6.0 °F 69% 30.33 in 6.0 mi WNW 10.4 mph 20.7 mph 0.00 in   Haze
11:16 PM 1.0 °F -14.9 °F -8.0 °F 66% 30.19 in 10.0 mi WNW 10.4 mph - N/A   Scattered Clouds
11:53 PM -0.0 °F -14.2 °F -7.1 °F 72% 30.34 in 10.0 mi WNW 8.1 mph - N/A   Clear